Weather History for KARV - December, 2012

Change the Weather History Date:

Sunday, December 9, 2012

  Actual Average (KRHI) Record (KRHI)
Temperature  
Mean Temperature 26 °F 19 °F  
Max Temperature 30 °F 27 °F 54 °F (1946)
Min Temperature 23 °F 11 °F -26 °F (1927)
Degree Days  
Heating Degree Days 38 46  
Month to date heating degree days 401  
Since 1 July heating degree days 2535  
Cooling Degree Days 0 0  
Month to date cooling degree days 0  
Year to date cooling degree days 261  
Moisture  
Dew Point 23 °F    
Average Humidity 83    
Maximum Humidity 93    
Minimum Humidity 74    
Precipitation  
Precipitation 0.01 in 0.05 in 0.44 in (2009)
Month to date precipitation 0.47  
Year to date precipitation 30.43  
Snow  
Snow 0.00 in - 6.90 in (2009)
Month to date snowfall  
Since 1 July snowfall  
Snow Depth -    
Sea Level Pressure  
Sea Level Pressure 29.96 in    
Wind  
Wind Speed 5 mph (East)    
Max Wind Speed 8 mph    
Max Gust Speed -    
Visibility 6 miles    
Events Snow    
T = Trace of Precipitation, MM = Missing Value Source: NWS Daily Summary

Daily Weather History Graph

Daily Weather History Graph

Search for Another Location

Airport or City:

Trip Planner

Search our weather history database for the weather conditions in past years. The results will help you decide how hot, cold, wet, or windy it might be!

Date:

Astronomy

Dec. 09, 2012 Rise Set
Actual Time 7:29 AM CST 4:13 PM CST
Civil Twilight 6:54 AM CST 4:48 PM CST
Nautical Twilight 6:17 AM CST 5:25 PM CST
Astronomical Twilight 5:40 AM CST 6:02 PM CST
Moon 2:52 AM CST (12/9) 1:29 PM CST (12/9)
Length of Visible Light 9h 53m
Length of Day
8h 44m
Waning Crescent, 18% of the Moon is Illuminated
Dec 9
Waning Crescent
Dec 13
New
Dec 19
First Quarter
Dec 28
Full
Jan 4
Last Quarter

Hourly Weather History & Observations

Time (CST) Temp. Windchill Dew Point Humidity Pressure Visibility Wind Dir Wind Speed Gust Speed Precip Events Conditions
12:15 AM 23.0 °F 18.4 °F 19.4 °F 86% 30.09 in 10.0 mi SE 3.5 mph - N/A   Clear
12:35 AM 24.8 °F 19.1 °F 19.4 °F 80% 30.10 in 10.0 mi SE 4.6 mph - N/A   Clear
1:15 AM 24.8 °F 20.5 °F 19.4 °F 80% 30.12 in 10.0 mi SSE 3.5 mph - N/A   Scattered Clouds
1:35 AM 24.8 °F - 19.4 °F 80% 30.14 in 10.0 mi Calm Calm - N/A   Mostly Cloudy
1:55 AM 24.8 °F 19.1 °F 19.4 °F 80% 30.13 in 10.0 mi SE 4.6 mph - N/A   Overcast
2:15 AM 24.8 °F 20.5 °F 19.4 °F 80% 30.13 in 10.0 mi SE 3.5 mph - N/A   Overcast
2:35 AM 24.8 °F 17.9 °F 19.4 °F 80% 30.12 in 10.0 mi SE 5.8 mph - N/A   Overcast
2:55 AM 24.8 °F 16.9 °F 19.4 °F 80% 30.10 in 10.0 mi ESE 6.9 mph - N/A   Overcast
3:15 AM 24.8 °F 17.9 °F 19.4 °F 80% 30.07 in 10.0 mi ESE 5.8 mph - N/A   Overcast
3:35 AM 24.8 °F 17.9 °F 19.4 °F 80% 30.08 in 10.0 mi ESE 5.8 mph - N/A   Overcast
3:55 AM 24.8 °F 20.5 °F 19.4 °F 80% 30.08 in 10.0 mi ESE 3.5 mph - N/A   Overcast
4:15 AM 24.8 °F 19.1 °F 19.4 °F 80% 30.08 in 10.0 mi ESE 4.6 mph - N/A   Overcast
4:35 AM 24.8 °F 17.9 °F 19.4 °F 80% 30.08 in 10.0 mi ESE 5.8 mph - N/A   Overcast
4:55 AM 24.8 °F 19.1 °F 19.4 °F 80% 30.07 in 10.0 mi ESE 4.6 mph - N/A   Mostly Cloudy
5:15 AM 24.8 °F 19.1 °F 19.4 °F 80% 30.08 in 10.0 mi ESE 4.6 mph - N/A   Overcast
5:35 AM 24.8 °F 19.1 °F 19.4 °F 80% 30.07 in 10.0 mi ESE 4.6 mph - N/A   Overcast
5:55 AM 24.8 °F 17.9 °F 19.4 °F 80% 30.08 in 10.0 mi ESE 5.8 mph - N/A   Overcast
6:15 AM 24.8 °F 19.1 °F 19.4 °F 80% 30.10 in 10.0 mi ESE 4.6 mph - N/A   Overcast
6:35 AM 24.8 °F 16.1 °F 19.4 °F 80% 30.09 in 10.0 mi ESE 8.1 mph - N/A   Overcast
6:55 AM 24.8 °F 16.9 °F 19.4 °F 80% 30.09 in 10.0 mi ESE 6.9 mph - N/A   Overcast
7:15 AM 24.8 °F 17.9 °F 19.4 °F 80% 30.07 in 10.0 mi ESE 5.8 mph - N/A   Overcast
7:35 AM 24.8 °F 17.9 °F 21.2 °F 86% 30.06 in 10.0 mi ESE 5.8 mph - N/A   Overcast
7:55 AM 24.8 °F 16.9 °F 21.2 °F 86% 30.06 in 10.0 mi ESE 6.9 mph - N/A   Overcast
8:15 AM 24.8 °F 17.9 °F 21.2 °F 86% 30.05 in 10.0 mi ESE 5.8 mph - N/A   Overcast
8:35 AM 26.6 °F 18.2 °F 21.2 °F 80% 30.06 in 10.0 mi ESE 8.1 mph - N/A   Overcast
8:55 AM 26.6 °F 20.0 °F 21.2 °F 80% 30.05 in 10.0 mi ESE 5.8 mph - N/A   Overcast
9:15 AM 26.6 °F 19.1 °F 21.2 °F 80% 30.05 in 10.0 mi ESE 6.9 mph - N/A   Overcast
9:35 AM 28.4 °F 20.4 °F 23.0 °F 80% 30.06 in 10.0 mi ESE 8.1 mph - N/A   Scattered Clouds
9:55 AM 28.4 °F 21.2 °F 21.2 °F 74% 30.06 in 10.0 mi ESE 6.9 mph - N/A   Mostly Cloudy
10:35 AM 28.4 °F 20.4 °F 21.2 °F 74% 30.05 in 10.0 mi ESE 8.1 mph - N/A   Mostly Cloudy
10:55 AM 30.2 °F 24.3 °F 23.0 °F 75% 30.03 in 10.0 mi East 5.8 mph - N/A   Mostly Cloudy
11:15 AM 30.2 °F 23.4 °F 23.0 °F 75% 30.01 in 10.0 mi East 6.9 mph - N/A   Mostly Cloudy
11:35 AM 30.2 °F 24.3 °F 23.0 °F 75% 30.01 in 7.0 mi East 5.8 mph - N/A   Overcast
11:55 AM 30.2 °F 24.3 °F 23.0 °F 75% 30.00 in 2.5 mi East 5.8 mph - N/A Snow Light Snow
12:15 PM 28.4 °F 22.2 °F 23.0 °F 80% 29.98 in 2.0 mi East 5.8 mph - N/A Snow Light Snow
12:35 PM 28.4 °F 22.2 °F 23.0 °F 80% 29.96 in 1.8 mi East 5.8 mph - N/A Snow Light Snow
12:55 PM 28.4 °F 21.2 °F 24.8 °F 86% 29.95 in 2.5 mi East 6.9 mph - N/A Snow Light Snow
1:15 PM 30.2 °F 24.3 °F 26.6 °F 86% 29.94 in 10.0 mi East 5.8 mph - N/A   Mostly Cloudy
1:35 PM 30.2 °F 24.3 °F 24.8 °F 80% 29.93 in 10.0 mi East 5.8 mph - N/A   Mostly Cloudy
1:55 PM 30.2 °F 24.3 °F 24.8 °F 80% 29.92 in 4.0 mi East 5.8 mph - N/A Snow Light Snow
2:15 PM 30.2 °F 23.4 °F 26.6 °F 86% 29.91 in 2.5 mi East 6.9 mph - N/A Snow Light Snow
2:35 PM 30.2 °F 23.4 °F 26.6 °F 86% 29.90 in 2.0 mi ENE 6.9 mph - N/A Snow Light Snow
2:55 PM 30.2 °F 25.4 °F 26.6 °F 86% 29.90 in 1.5 mi NE 4.6 mph - N/A Snow Light Snow
3:15 PM 30.2 °F 24.3 °F 26.6 °F 86% 29.88 in 2.0 mi NE 5.8 mph - N/A Snow Light Snow
3:35 PM 28.4 °F 22.2 °F 26.6 °F 93% 29.87 in 1.5 mi ENE 5.8 mph - N/A Snow Light Snow
3:55 PM 28.4 °F 22.2 °F 26.6 °F 93% 29.87 in 1.8 mi NE 5.8 mph - N/A Snow Light Snow
4:15 PM 28.4 °F 21.2 °F 26.6 °F 93% 29.87 in 2.0 mi NE 6.9 mph - N/A Snow Light Snow
4:35 PM 28.4 °F 22.2 °F 26.6 °F 93% 29.87 in 2.5 mi NE 5.8 mph - N/A Snow Light Snow
4:55 PM 28.4 °F 22.2 °F 24.8 °F 86% 29.87 in 2.5 mi ENE 5.8 mph - N/A Snow Light Snow
5:15 PM 28.4 °F 21.2 °F 24.8 °F 86% 29.86 in 2.0 mi NE 6.9 mph - N/A Snow Light Snow
5:35 PM 28.4 °F 22.2 °F 24.8 °F 86% 29.85 in 2.0 mi ENE 5.8 mph - N/A Snow Light Snow
5:55 PM 28.4 °F 22.2 °F 24.8 °F 86% 29.85 in 2.5 mi ENE 5.8 mph - N/A Snow Light Snow
6:15 PM 28.4 °F 21.2 °F 24.8 °F 86% 29.84 in 2.5 mi ENE 6.9 mph - N/A Snow Light Snow
6:35 PM 28.4 °F 20.4 °F 24.8 °F 86% 29.84 in 3.0 mi NE 8.1 mph - 0.01 in Snow Light Snow
6:55 PM 28.4 °F 21.2 °F 24.8 °F 86% 29.84 in 2.5 mi ENE 6.9 mph - 0.01 in Snow Light Snow
7:15 PM 28.4 °F 22.2 °F 24.8 °F 86% 29.83 in 2.5 mi ENE 5.8 mph - N/A Snow Light Snow
7:35 PM 28.4 °F 21.2 °F 24.8 °F 86% 29.83 in 2.5 mi NE 6.9 mph - N/A Snow Light Snow
7:55 PM 28.4 °F 22.2 °F 24.8 °F 86% 29.83 in 2.5 mi NE 5.8 mph - N/A Snow Light Snow
8:15 PM 28.4 °F 23.3 °F 24.8 °F 86% 29.83 in 2.5 mi NE 4.6 mph - N/A Snow Light Snow
8:35 PM 28.4 °F 23.3 °F 24.8 °F 86% 29.82 in 3.0 mi NE 4.6 mph - N/A Snow Light Snow
8:55 PM 28.4 °F 22.2 °F 24.8 °F 86% 29.81 in 3.0 mi NNE 5.8 mph - N/A Snow Light Snow
9:15 PM 28.4 °F 22.2 °F 24.8 °F 86% 29.81 in 3.0 mi NNE 5.8 mph - N/A Snow Light Snow
9:35 PM 28.4 °F 21.2 °F 24.8 °F 86% 29.81 in 2.5 mi NNE 6.9 mph - N/A Snow Light Snow
9:55 PM 28.4 °F 22.2 °F 24.8 °F 86% 29.80 in 3.0 mi NE 5.8 mph - N/A Snow Light Snow
10:15 PM 28.4 °F 21.2 °F 24.8 °F 86% 29.79 in 3.0 mi NNE 6.9 mph - N/A Snow Light Snow
10:35 PM 28.4 °F 21.2 °F 24.8 °F 86% 29.79 in 4.0 mi NNE 6.9 mph - N/A Snow Light Snow
10:55 PM 28.4 °F 22.2 °F 24.8 °F 86% 29.79 in 7.0 mi NNE 5.8 mph - N/A Snow Light Snow
11:15 PM 26.6 °F 21.2 °F 23.0 °F 86% 29.78 in 7.0 mi NNE 4.6 mph - N/A Snow Light Snow
11:35 PM 26.6 °F 20.0 °F 23.0 °F 86% 29.77 in 7.0 mi NE 5.8 mph - N/A Snow Light Snow
11:55 PM 26.6 °F 22.6 °F 23.0 °F 86% 29.76 in 7.0 mi NNE 3.5 mph - N/A Snow Light Snow